GFSWCAN_con_3kmhel_000.txt.gz
Helicity
187 113 117 112 95 94 90 89 86 88 96 93 103 125 132 122 134 127 123 136 118 120 103 106 97 112 137 144 153 122 174 173 239 210 222 173 144 109 207 173 157 182 161 190 233 294 237 211 258 194 145 118 70 143
144 150 116 105 86 91 101 93 90 85 91 91 86 91 104 110 110 131 137 142 129 128 93 92 84 69 71 83 139 139 164 192 205 274 204 195 198 241 273 259 283 257 241 263 350 335 313 210 98 123 120 85 136 165
224 184 124 114 103 105 108 101 99 96 95 84 86 97 87 97 100 126 129 131 156 152 134 139 97 93 128 108 116 186 195 193 265 218 189 182 288 344 289 241 277 272 282 373 232 282 213 142 115 116 131 147 183 207
135 199 297 208 175 148 122 105 115 107 103 97 98 104 93 102 108 111 147 147 159 172 209 151 83 82 76 149 159 146 155 214 209 243 220 179 203 173 309 287 331 315 368 334 244 182 173 131 133 157 162 257 279 285
150 165 261 282 249 232 183 136 132 131 109 101 98 97 101 111 104 133 152 169 146 204 209 176 113 59 135 157 143 138 152 163 171 192 256 270 295 298 299 352 385 402 290 306 289 169 189 175 195 232 273 365 490 288
87 119 185 269 330 249 146 120 133 113 105 110 108 100 110 115 140 165 213 131 149 169 158 169 145 161 201 155 112 131 158 183 205 191 190 195 309 315 289 281 264 260 232 207 200 141 168 191 268 208 210 71 -43 -0
41 38 31 29 45 79 187 177 124 103 91 93 91 117 128 123 193 219 244 177 104 252 259 182 149 147 104 81 121 124 105 129 163 192 263 242 266 278 282 222 215 180 213 146 121 127 194 307 305 317 120 84 87 43
47 25 26 35 56 66 56 55 61 77 62 80 100 110 113 142 224 228 297 262 187 202 181 140 175 188 170 159 127 162 139 139 157 239 314 256 251 313 280 255 180 147 123 98 172 277 250 179 93 124 163 88 -7 60
56 47 40 57 68 76 77 88 83 59 55 78 99 121 153 189 196 138 130 201 249 196 257 231 161 106 181 182 176 141 181 200 207 297 284 263 281 330 259 156 134 141 137 184 253 277 226 179 142 73 -4 58 64 43
71 61 46 33 43 65 80 82 113 142 86 126 176 184 161 146 145 109 142 107 116 229 220 155 226 215 225 201 184 142 159 215 295 276 233 290 282 157 47 103 117 123 140 157 224 211 124 96 77 68 49 37 59 58
72 72 62 65 59 55 67 61 99 133 134 174 196 213 194 172 174 157 146 156 163 199 195 266 236 250 245 228 217 177 212 223 257 219 265 278 209 73 90 105 144 156 163 182 167 183 201 160 117 93 58 65 64 80
48 52 50 53 54 48 37 38 99 106 122 145 134 160 166 140 171 175 197 229 240 217 190 175 179 233 248 224 209 203 225 234 200 240 275 253 128 138 152 198 178 193 210 228 257 242 162 105 51 17 65 92 117 121
46 48 51 57 53 53 53 86 106 85 111 133 145 156 136 163 206 219 261 327 312 298 249 178 186 158 185 208 241 222 225 208 249 282 270 147 189 204 163 148 151 166 145 118 74 1 12 26 26 72 67 79 70 72
45 49 62 76 71 66 74 104 99 113 112 123 124 149 144 167 184 243 247 204 190 162 147 160 166 165 158 182 180 186 190 245 303 256 151 230 212 190 160 123 144 142 112 66 28 -2 15 53 87 96 81 98 116 99
58 66 93 90 84 87 90 114 135 101 132 136 135 154 152 181 188 148 124 133 137 115 128 157 186 174 194 201 185 242 282 249 164 123 207 200 147 96 42 38 32 40 36 47 74 104 103 104 120 125 152 154 117 111
138 172 132 107 93 92 119 157 170 127 150 159 170 196 167 161 140 113 96 104 89 106 141 143 157 176 165 209 283 250 246 174 144 172 143 108 29 -32 -52 -22 7 51 85 101 116 139 137 131 131 162 169 147 102 65
200 179 119 129 97 119 154 146 138 160 139 196 185 161 126 109 93 82 79 83 101 132 129 154 164 99 238 251 279 238 209 106 127 137 104 15 -26 -36 -8 23 49 72 93 102 111 127 149 158 154 136 150 140 95 81
206 115 82 85 149 210 187 149 143 148 161 145 136 87 81 83 83 87 73 88 111 117 138 150 186 240 248 238 253 194 137 105 25 -17 33 43 37 19 23 67 79 86 93 106 127 153 153 138 145 141 170 134 104 89
103 95 115 130 157 155 135 135 132 135 113 100 92 84 80 75 79 95 91 113 126 151 186 244 199 230 246 215 125 114 107 95 103 74 41 25 61 78 83 87 99 112 108 119 113 114 123 128 128 135 165 157 113 115
67 63 93 138 157 123 135 111 107 106 77 81 90 86 75 67 73 103 110 127 161 179 198 254 270 254 194 159 165 154 127 94 94 101 84 86 98 88 94 119 128 103 94 89 119 124 124 102 112 133 140 111 88 117
150 120 157 134 138 127 103 97 100 70 73 78 72 86 70 97 109 97 93 110 151 229 259 217 181 161 169 166 168 175 150 148 137 178 120 98 95 130 125 111 86 86 91 94 83 59 92 117 99 102 99 91 103 87
158 128 128 125 117 115 99 80 71 58 77 74 83 80 81 76 76 78 98 168 171 183 204 210 191 208 198 164 140 158 144 135 141 147 149 162 130 96 86 73 70 74 63 62 74 67 83 91 87 82 82 96 100 112
144 120 106 88 90 92 74 83 95 77 78 49 65 57 55 75 66 100 116 132 136 144 177 193 183 195 184 159 163 137 137 131 121 131 125 117 111 99 78 80 85 78 63 54 85 79 89 87 76 76 108 134 138 158
84 77 73 68 85 75 73 72 74 69 82 76 64 73 82 69 88 153 163 158 150 179 198 188 203 183 150 124 133 125 132 153 113 98 106 129 104 60 55 73 62 92 92 75 61 86 82 63 54 65 103 128 147 160
85 60 67 66 60 68 63 73 74 96 79 91 119 111 95 104 125 164 165 130 138 137 145 118 130 128 122 107 113 106 99 104 85 76 76 100 81 70 81 100 79 63 80 84 58 54 89 60 60 74 84 83 75 81
61 34 29 31 49 68 48 63 62 74 114 111 94 94 126 114 145 106 122 116 107 93 83 78 91 99 82 99 87 81 94 109 115 95 81 83 87 97 104 97 68 53 100 103 59 31 67 64 57 64 72 58 60 70
65 52 72 110 116 108 99 86 107 130 122 123 121 146 151 162 123 126 86 79 84 51 58 60 59 59 64 57 67 90 125 138 115 77 82 101 97 111 125 102 83 101 101 100 81 57 68 67 59 76 81 70 73 90
67 108 148 143 161 173 151 148 146 138 144 153 217 226 195 172 171 128 85 73 53 44 45 44 37 60 93 127 116 163 171 151 130 107 106 87 79 109 103 112 83 69 64 72 74 67 68 70 67 68 88 98 94 107
143 161 182 153 183 186 197 208 224 220 212 218 181 169 161 172 148 107 73 69 40 -0 -33 -6 44 96 129 150 145 142 136 131 105 58 44 54 69 89 86 80 91 99 93 80 77 71 55 51 46 48 66 105 131 136
148 169 183 182 206 226 221 210 187 158 155 165 183 174 61 -1 111 170 27 -35 41 73 83 82 87 116 102 101 92 84 87 101 100 106 102 99 76 74 75 77 78 71 65 64 64 67 63 61 61 72 104 166 176 218
114 145 158 157 125 125 151 152 141 148 152 113 108 -37 -58 -27 95 135 155 120 103 97 105 103 118 141 121 120 121 115 103 135 135 120 99 95 98 90 86 79 70 63 62 61 58 57 58 60 66 80 103 126 131 123
142 111 109 69 58 104 126 109 109 112 110 131 33 151 130 168 121 172 172 160 185 181 174 186 189 147 136 114 113 127 142 117 106 113 129 118 109 95 85 81 80 78 67 67 70 67 66 71 73 71 60 61 75 93
105 103 95 95 102 111 86 110 99 100 127 133 119 141 167 155 157 190 181 167 104 98 94 78 72 79 94 91 79 85 84 87 110 120 119 110 103 93 80 80 80 84 94 102 107 104 109 108 100 110 135 183 208 207

GFSWCAN_con_3kmhel_006.txt.gz
Helicity
181 149 97 76 80 88 84 87 83 88 92 99 109 131 145 144 162 115 109 125 96 97 72 69 79 102 108 116 123 88 150 165 196 219 226 192 233 158 229 169 172 156 151 195 180 190 80 155 134 105 144 194 139 103
159 193 121 94 87 91 96 93 84 87 98 99 111 127 142 155 173 133 132 134 120 110 71 87 83 77 66 47 94 140 150 168 163 253 215 239 212 264 223 242 217 189 206 195 260 236 223 250 113 138 147 150 165 219
176 191 165 111 83 108 106 89 79 88 94 103 110 111 122 144 168 137 132 145 141 132 106 106 86 100 81 65 85 150 166 163 186 174 196 205 258 294 254 219 249 230 129 232 210 195 173 87 86 154 166 190 213 243
137 171 237 145 110 105 119 105 100 96 95 101 105 105 106 121 148 137 141 134 151 128 120 90 88 87 102 97 110 162 166 209 211 208 257 276 287 261 241 212 279 252 192 194 192 150 144 124 192 122 131 82 100 -8
75 163 175 205 106 99 106 96 93 98 114 107 112 116 111 111 133 138 128 124 127 134 92 85 76 81 93 110 106 159 191 241 250 277 315 310 286 287 295 295 265 258 192 212 197 140 112 105 132 105 97 110 -6 43
45 133 175 140 133 123 106 139 149 126 120 114 114 122 109 101 106 142 153 128 134 156 142 111 83 100 87 138 202 191 228 249 280 303 268 249 262 207 223 291 175 206 182 149 202 130 144 183 185 183 142 68 87 101
44 42 140 154 177 130 117 146 145 141 137 120 111 116 103 92 159 163 130 110 132 195 183 121 129 149 117 174 228 220 227 231 224 194 246 192 180 206 295 259 247 128 140 146 146 156 200 164 174 192 193 171 133 137
29 50 123 148 202 282 199 177 211 183 150 131 111 101 120 180 180 169 187 163 176 176 169 196 282 300 206 193 178 147 174 177 182 219 256 228 232 246 231 153 163 159 177 145 174 214 185 147 198 213 160 155 140 106
22 43 141 136 157 255 345 285 190 208 202 187 200 250 272 254 249 245 175 234 264 221 235 278 270 159 187 178 138 172 183 184 159 242 249 234 243 227 233 184 134 123 146 185 210 186 215 248 214 136 100 103 84 75
31 23 50 47 64 118 166 325 333 308 238 359 408 377 382 285 171 191 211 192 268 317 285 314 361 195 165 175 195 208 192 200 248 210 182 208 223 291 223 220 200 233 258 235 250 205 167 131 107 102 84 84 86 77
54 48 38 23 25 63 37 28 116 148 220 302 351 314 195 225 243 224 220 201 267 338 216 183 146 203 267 218 190 160 191 190 248 246 278 316 312 275 269 262 270 272 226 168 129 88 77 123 121 110 123 113 109 143
61 60 49 29 37 76 107 76 122 112 105 137 115 131 114 162 227 230 211 198 189 225 170 131 121 154 198 205 185 222 227 223 265 263 290 307 242 261 318 295 238 213 176 159 133 134 129 115 102 102 98 123 163 169
61 73 81 64 40 64 96 76 106 98 132 157 168 215 186 177 297 324 288 330 265 184 130 130 162 151 170 199 194 209 265 289 304 322 297 202 256 276 245 228 207 163 144 134 126 94 74 52 44 88 121 139 156 149
52 60 67 65 55 71 92 145 120 119 150 156 144 221 171 196 221 258 236 180 187 163 131 144 162 162 191 204 208 235 240 277 320 270 166 211 214 202 183 143 125 115 95 68 53 32 44 73 103 117 138 125 127 134
86 81 77 78 72 83 83 114 100 72 102 115 117 136 144 152 159 137 123 132 146 146 162 163 185 186 199 227 233 266 269 245 153 101 137 148 141 126 131 134 115 92 77 60 63 93 105 108 117 106 101 115 140 146
124 126 107 69 82 103 106 109 99 77 119 113 112 142 109 112 110 100 93 102 111 152 176 190 209 222 224 249 272 253 245 125 118 132 132 113 134 133 134 109 72 60 77 97 112 120 112 110 101 97 111 113 116 140
166 206 95 94 110 141 148 119 117 135 102 121 118 126 113 108 65 72 91 106 114 158 197 196 223 192 241 278 286 156 131 119 90 101 101 115 134 112 91 98 97 110 118 128 120 107 106 107 100 100 91 86 102 81
213 104 94 85 150 165 157 140 133 139 143 132 111 86 98 104 108 112 103 110 136 144 156 186 179 250 269 235 168 120 79 78 75 112 119 136 118 95 91 94 107 124 113 106 105 108 119 95 86 85 99 93 89 78
80 83 113 138 141 150 125 130 147 123 112 108 116 106 101 96 105 123 111 116 129 135 169 194 210 187 156 158 102 80 63 94 121 116 134 121 98 97 100 106 112 101 96 99 97 104 112 103 108 114 128 120 89 87
101 131 167 170 146 138 119 116 122 105 81 82 108 108 115 117 118 121 117 133 143 151 172 186 183 163 115 88 72 108 122 120 148 119 88 113 117 101 107 103 108 107 94 97 88 94 95 100 118 129 100 74 77 93
211 190 208 162 191 163 126 90 117 79 83 113 105 99 103 91 93 92 87 105 146 167 165 157 139 128 126 145 137 147 162 191 164 177 154 126 117 119 117 114 116 108 117 97 70 75 86 109 84 104 74 61 59 76
257 160 179 206 148 151 134 138 105 103 109 90 103 94 97 91 75 75 99 122 127 112 122 145 150 180 160 135 147 164 137 130 145 171 167 160 131 119 121 123 132 126 122 119 112 112 113 111 89 99 88 68 50 62
185 166 167 149 137 156 125 129 145 122 103 83 90 102 93 86 82 86 101 86 68 56 134 146 142 163 155 136 124 101 114 112 122 131 132 132 130 115 117 117 126 117 106 120 106 121 99 75 68 103 92 88 83 74
113 120 143 139 141 133 105 102 105 106 105 106 100 103 84 82 91 89 77 90 72 111 108 114 152 140 126 95 112 123 124 132 117 114 120 124 99 90 129 115 98 101 108 91 97 101 90 92 89 86 99 114 95 84
123 119 107 115 115 106 81 100 109 89 75 90 97 85 68 84 77 78 81 70 64 79 93 118 104 106 100 106 104 104 103 107 120 104 87 130 139 147 124 121 107 105 79 105 109 103 84 91 88 82 89 97 94 79
105 88 78 55 70 72 53 76 65 63 77 69 39 60 87 101 102 60 85 40 55 67 85 53 61 105 128 121 122 98 62 40 77 115 112 154 209 229 186 142 105 84 64 97 94 80 77 81 71 74 87 69 84 84
69 47 40 63 48 49 56 62 73 71 61 44 65 101 111 100 76 94 80 77 97 82 70 77 119 137 131 112 103 92 75 92 117 128 126 141 171 197 175 145 102 90 85 87 85 84 79 76 86 92 88 69 71 77
47 40 38 42 45 63 70 75 73 57 62 99 158 143 111 120 120 117 102 103 122 133 95 104 130 141 120 98 88 75 70 95 96 79 104 131 128 123 130 137 106 79 73 68 75 82 85 80 73 75 75 72 68 61
59 58 87 67 87 79 72 98 106 120 142 179 166 175 185 181 157 144 141 118 105 120 109 85 66 72 73 69 75 102 110 113 119 103 76 64 91 130 135 105 96 84 77 75 79 88 93 93 94 82 64 50 40 37
58 95 110 112 126 117 124 132 128 140 170 204 205 212 214 205 203 193 176 146 127 119 106 96 98 80 59 54 59 109 155 155 147 139 121 103 99 103 104 112 106 97 86 80 87 92 99 106 98 98 90 76 63 52
99 123 135 150 136 114 119 145 165 174 185 180 200 222 184 184 237 235 253 186 137 125 126 128 126 110 96 107 118 123 123 146 153 151 141 139 119 112 111 97 80 71 72 75 80 87 88 86 86 73 84 89 102 101
115 112 135 135 118 105 129 131 144 160 160 185 147 194 213 241 243 246 225 188 141 134 125 109 100 99 102 100 96 114 127 111 129 119 115 100 94 89 82 75 72 73 76 86 93 96 103 108 102 102 96 112 120 132
120 132 119 102 107 102 110 127 137 101 108 113 117 104 119 156 161 143 177 116 54 53 69 81 74 66 86 114 118 115 117 100 106 123 122 100 89 77 67 68 70 81 97 103 106 104 111 104 104 108 111 116 120 125

GFSWCAN_con_3kmhel_009.txt.gz
Helicity
224 189 132 106 107 90 86 78 71 85 86 93 115 128 131 142 150 95 90 113 85 95 65 70 74 88 103 100 102 65 101 91 128 143 115 114 162 184 224 172 138 162 154 162 186 163 97 154 148 108 159 144 98 97
158 175 120 94 90 91 91 84 77 75 87 86 98 117 133 151 150 102 109 115 121 106 72 95 109 100 93 59 91 84 90 83 83 144 132 206 204 273 248 251 165 155 149 177 193 218 140 183 127 160 144 81 98 144
81 144 153 103 75 81 86 85 86 88 84 87 87 106 130 148 167 117 110 123 130 119 121 121 108 109 106 107 90 114 95 110 128 164 189 244 256 325 299 216 212 233 194 215 219 178 117 115 142 167 141 131 31 99
54 63 141 184 135 80 87 89 90 91 83 93 96 101 119 141 157 136 133 124 141 125 116 102 99 108 117 97 105 111 106 157 196 207 255 299 291 249 288 249 267 213 211 186 223 88 71 145 120 136 137 121 102 54
57 44 96 158 175 133 105 96 91 96 97 101 112 112 116 128 136 138 139 144 143 134 87 86 96 128 139 113 107 146 153 179 191 238 303 284 286 287 286 317 283 220 190 209 208 130 162 241 211 137 147 112 148 132
54 41 86 173 176 195 141 93 109 116 114 100 99 91 95 108 133 151 150 134 140 133 147 113 117 150 159 177 181 159 165 183 226 281 293 275 262 233 273 308 217 159 125 100 155 233 155 172 151 169 196 164 143 115
51 47 36 115 181 238 207 131 126 133 131 123 113 98 83 97 152 163 139 122 133 167 164 131 127 120 167 175 198 223 224 226 241 266 289 253 221 184 304 327 174 206 149 172 195 190 256 168 204 208 174 148 109 75
56 37 28 26 110 162 267 148 137 120 121 116 102 98 123 163 149 153 170 118 153 156 164 169 177 196 148 140 137 156 183 207 242 240 249 225 245 268 275 302 266 193 176 240 235 284 304 317 242 157 117 91 82 94
51 33 73 102 101 146 212 237 182 121 144 161 159 156 206 208 221 190 175 205 213 164 149 196 229 155 187 166 162 193 152 173 200 259 249 220 257 267 279 229 208 205 176 194 295 258 215 162 97 82 88 83 82 70
48 30 44 100 121 151 160 253 173 172 223 269 335 267 280 243 235 212 281 197 174 221 271 303 370 323 187 181 226 171 159 187 231 250 204 266 332 347 286 245 227 192 206 190 187 171 103 97 84 72 63 67 67 80
41 33 18 54 85 124 105 257 276 236 346 368 375 379 359 321 400 314 240 247 276 262 256 329 313 318 238 199 189 133 153 201 256 273 282 295 285 259 254 262 239 241 212 166 111 79 72 63 70 78 68 63 90 117
36 34 21 20 37 56 32 149 324 378 388 281 279 393 486 407 322 300 418 396 254 289 297 252 249 240 208 150 140 159 207 214 242 233 246 278 225 285 285 259 206 158 136 115 87 87 95 92 80 59 81 114 119 123
39 37 32 42 49 34 32 56 113 139 112 216 355 376 300 292 424 412 438 406 335 275 148 129 191 132 136 173 195 195 204 250 259 268 292 237 232 238 198 154 150 137 122 108 97 98 78 60 88 120 111 120 114 111
46 43 47 56 47 45 55 63 107 72 96 200 250 501 445 311 328 315 284 243 151 116 111 145 143 125 154 168 177 221 237 254 292 283 185 194 167 123 111 138 149 123 105 95 64 58 85 98 105 117 122 107 105 113
84 71 72 104 83 56 59 67 87 102 119 141 149 173 121 120 121 114 83 91 96 90 111 121 136 137 167 186 222 236 257 252 187 144 155 121 105 98 125 135 116 102 81 75 93 107 112 114 115 99 89 91 95 100
59 83 82 65 94 72 97 93 95 63 84 92 101 117 63 96 88 72 77 79 82 124 153 157 156 148 165 198 235 242 266 191 168 160 137 120 116 127 113 106 91 89 93 99 115 122 107 106 104 89 96 91 93 104
135 144 65 94 109 106 127 92 120 132 102 105 110 83 58 61 42 62 76 79 86 122 129 143 153 159 209 220 246 196 166 154 144 165 131 103 118 103 96 95 95 98 111 118 110 110 100 102 108 110 104 90 98 108
128 94 99 90 134 162 150 122 110 98 101 85 92 70 75 81 81 83 79 93 106 108 132 149 162 210 212 180 154 135 134 172 116 115 118 114 104 94 98 89 93 108 113 113 109 101 99 75 60 92 112 108 104 83
113 131 151 173 160 145 108 95 80 91 89 79 85 82 89 94 109 114 103 107 119 128 174 190 183 146 128 129 114 112 82 78 108 106 126 120 104 95 91 95 105 108 114 100 92 88 83 69 61 87 140 143 110 116
254 284 235 195 104 114 117 107 101 89 80 79 90 95 107 120 118 125 127 133 148 161 191 179 146 130 77 51 55 86 93 93 119 108 91 104 99 105 105 109 121 115 98 91 101 106 87 74 70 77 122 130 119 113
243 210 218 174 132 117 83 63 82 60 59 84 85 94 103 95 104 107 112 126 145 179 148 108 102 93 106 113 105 128 136 151 131 133 118 103 121 136 124 117 112 122 113 102 103 94 94 103 98 101 102 107 110 115
167 123 136 140 92 90 77 88 74 84 95 78 93 92 92 86 79 89 97 113 110 105 123 125 138 130 109 96 102 125 109 111 125 134 126 126 124 135 129 129 132 113 110 105 102 98 100 102 95 93 100 105 111 102
157 162 141 109 85 103 93 133 143 131 111 92 105 112 105 100 78 83 80 78 70 45 79 83 71 78 76 83 92 87 110 122 121 125 131 136 134 127 129 116 119 122 118 106 103 104 110 89 93 93 89 96 101 103
127 118 114 101 109 107 101 111 117 121 124 124 110 102 84 79 83 85 81 79 49 79 80 84 87 67 78 79 89 100 124 134 127 132 140 129 111 104 132 116 131 166 164 128 108 108 112 107 99 98 87 78 76 83
107 110 101 128 121 119 100 103 105 91 97 94 105 93 78 80 87 76 61 42 50 66 82 93 99 75 65 70 85 103 137 146 136 113 104 119 108 100 91 109 129 142 176 150 122 107 107 95 84 83 79 86 88 86
104 79 70 39 52 75 69 76 77 97 100 90 62 76 83 98 96 60 65 32 48 73 85 110 104 70 67 74 98 131 141 117 112 106 88 91 98 112 111 103 87 117 112 91 78 78 82 79 78 68 67 68 72 81
65 37 28 40 60 74 94 105 99 95 80 61 58 82 86 79 50 54 64 77 112 161 149 137 132 115 114 111 132 130 129 108 114 121 102 97 109 103 96 95 93 114 136 113 89 85 72 70 64 65 64 62 73 77
19 24 42 41 67 70 79 77 64 40 45 77 128 110 90 76 77 108 154 204 187 141 108 97 92 104 116 116 115 107 84 91 109 120 122 126 141 145 165 151 147 139 123 88 75 81 80 72 66 65 61 64 71 70
27 35 74 64 66 56 51 69 72 71 89 123 128 136 131 143 184 191 163 133 121 107 106 95 87 103 101 110 102 104 101 107 106 75 64 117 118 122 132 116 114 115 99 98 98 95 84 82 82 78 76 78 71 66
33 64 82 83 95 81 74 100 84 96 122 152 160 167 167 192 172 162 165 150 144 138 137 134 122 97 63 39 38 64 96 132 148 126 121 136 152 134 117 125 126 109 97 84 76 78 96 104 96 104 103 106 110 108
76 82 112 115 94 78 93 123 131 138 150 130 154 165 162 182 216 206 223 159 99 79 95 115 136 119 71 64 80 98 116 144 141 137 133 127 118 125 117 101 84 71 66 61 74 83 86 93 101 104 117 120 116 110
100 101 110 106 92 87 102 122 119 131 134 145 133 155 169 209 226 199 131 116 96 101 109 102 113 125 119 105 119 130 126 112 127 125 133 113 109 100 90 86 75 67 70 77 85 93 98 104 100 103 111 123 123 125
81 83 92 89 93 91 101 113 125 98 106 107 116 121 137 154 166 143 111 110 74 87 105 107 106 72 65 64 66 58 62 52 62 79 81 72 68 74 68 67 68 76 90 93 102 102 108 109 114 120 125 125 122 119

GFSWCAN_con_3kmhel_012.txt.gz
Helicity
209 260 159 122 107 104 107 122 126 111 103 102 113 132 146 156 148 111 105 116 99 102 81 92 93 103 110 101 107 95 111 107 134 146 126 104 100 81 106 148 170 178 206 150 115 144 104 120 104 138 149 118 168 159
82 174 227 137 120 108 103 108 120 123 113 98 104 130 140 153 147 119 106 116 133 115 93 104 112 121 121 102 120 106 131 96 114 146 109 111 116 130 134 152 181 180 171 179 185 173 125 86 79 118 147 173 197 131
118 99 126 187 130 113 109 104 95 101 107 98 94 117 137 147 149 117 107 121 122 117 124 106 104 115 126 139 128 134 134 137 126 137 126 145 154 170 199 174 178 219 168 232 199 125 54 92 80 190 202 176 145 139
82 80 147 172 163 114 107 104 92 86 89 93 91 103 132 154 150 122 122 128 136 125 121 113 114 130 147 125 115 131 124 167 165 169 193 194 186 138 229 218 229 205 195 141 126 69 83 114 200 194 140 148 72 1
60 87 85 108 158 153 102 88 95 90 87 91 88 95 115 142 152 137 139 146 146 138 86 109 132 156 168 128 106 107 117 163 191 218 230 211 205 236 288 331 270 123 76 185 210 92 182 144 176 96 46 37 80 89
46 56 91 117 120 151 134 91 89 89 96 89 93 94 100 116 148 146 133 122 149 153 139 111 128 158 158 143 117 130 134 172 197 185 205 215 225 208 280 352 223 103 116 136 158 217 164 166 197 146 126 126 115 95
58 54 59 88 134 127 164 127 94 95 105 94 94 96 98 125 154 179 176 144 153 163 147 128 105 164 215 205 213 181 184 179 174 182 219 235 231 246 349 297 171 185 249 217 216 190 149 158 150 154 125 90 84 77
65 52 45 73 107 113 104 159 182 129 126 109 92 98 127 145 134 156 174 153 155 166 184 176 173 178 135 151 150 150 153 158 175 212 264 278 264 272 300 272 229 225 255 214 213 206 227 170 133 105 94 94 90 81
79 65 48 52 66 106 83 124 149 115 120 125 167 157 181 181 190 178 146 170 173 175 174 204 221 156 181 207 184 172 177 190 232 297 287 205 264 272 248 229 209 165 115 151 133 168 164 146 121 101 92 87 83 66
78 72 57 54 68 93 81 116 150 144 144 247 317 292 275 236 167 185 196 184 209 238 257 223 244 265 173 187 187 181 167 193 195 215 194 262 310 310 241 266 246 190 157 137 149 147 133 117 110 90 62 60 73 93
84 81 69 51 68 75 61 57 158 116 264 215 340 384 228 270 334 233 190 254 257 303 223 292 320 298 349 254 278 211 224 230 231 243 259 270 247 191 243 237 213 191 191 165 142 119 101 85 79 76 78 94 105 107
84 83 72 60 52 65 68 77 264 207 282 369 340 524 444 401 239 246 312 281 234 258 263 257 315 374 330 263 296 255 292 240 289 253 275 291 202 209 218 203 168 154 151 145 114 100 93 87 90 96 103 105 115 111
94 77 72 58 50 33 44 74 139 131 215 339 334 361 308 284 309 320 400 533 433 296 257 293 323 304 274 248 279 227 268 313 228 271 298 228 183 155 156 148 140 133 133 111 95 86 89 83 105 119 117 109 110 96
93 80 75 55 58 36 28 61 88 97 176 277 339 394 415 257 360 370 425 416 366 359 344 385 418 339 200 221 220 275 231 207 271 285 164 160 119 117 123 126 140 129 120 94 84 78 94 103 113 118 118 110 103 93
96 85 66 48 45 79 100 105 106 70 117 194 260 345 400 291 191 207 193 232 207 135 193 204 215 150 168 165 177 195 176 220 143 86 114 119 120 112 124 109 94 92 97 91 91 102 112 114 123 104 94 94 92 105
68 67 49 42 28 55 62 93 57 39 53 64 96 122 105 147 144 91 69 89 66 74 96 101 125 132 174 181 197 196 229 159 134 135 134 132 118 120 118 98 77 82 93 95 89 95 108 120 120 85 84 93 85 113
44 80 45 56 74 124 155 104 124 104 75 80 82 79 57 48 38 35 38 33 44 67 83 75 69 113 115 119 151 150 139 149 130 121 127 132 132 115 82 76 87 95 98 93 97 109 109 115 111 88 70 53 59 95
75 85 46 48 65 107 133 180 140 133 113 92 95 66 64 62 57 62 64 76 76 70 87 104 115 133 135 113 104 106 101 120 100 136 151 128 81 62 72 76 79 87 91 103 124 113 111 107 86 79 67 49 52 73
62 91 65 97 95 87 86 84 104 77 84 74 72 70 73 75 86 88 88 94 106 112 121 128 120 100 79 77 95 103 94 105 115 117 106 76 69 77 81 76 85 89 102 112 107 110 102 92 88 79 63 65 84 86
80 157 188 181 160 108 102 102 87 76 74 74 72 73 78 81 82 87 92 99 100 110 128 127 102 79 68 67 68 91 103 99 85 70 72 74 67 63 73 87 102 97 111 96 101 117 106 85 71 71 71 76 88 84
266 315 352 317 256 214 136 105 99 81 66 76 71 72 71 75 85 90 100 117 133 147 108 76 87 78 78 84 82 82 76 78 81 89 77 78 81 90 80 74 76 96 100 100 109 102 112 90 71 76 89 93 88 90
225 333 356 282 209 128 72 78 75 69 68 68 66 76 77 77 83 98 95 109 110 90 98 101 78 71 66 54 48 51 48 67 76 88 89 89 88 85 74 71 78 89 87 107 102 132 121 105 89 85 88 92 82 83
213 227 166 106 71 68 58 87 82 94 74 84 83 85 90 91 100 85 83 69 50 43 52 53 55 52 44 45 52 44 61 63 65 74 91 98 94 96 92 83 85 100 106 102 125 148 146 128 104 95 98 91 85 71
124 93 66 58 53 55 65 76 83 97 103 105 94 99 96 96 85 82 75 61 46 64 57 51 61 55 55 47 44 34 52 77 89 108 120 121 106 86 80 80 83 99 105 112 135 160 161 137 105 74 78 80 72 74
71 94 71 72 73 67 71 88 101 100 99 93 99 94 90 78 81 77 72 59 42 34 42 55 63 68 71 73 60 32 39 88 111 111 101 96 90 83 69 63 66 89 93 96 103 114 118 109 93 83 78 77 58 50
65 61 63 46 62 70 69 64 61 76 89 107 88 94 86 97 95 74 57 41 45 77 126 150 133 111 104 93 76 65 71 113 134 150 119 100 81 89 83 65 59 68 75 78 93 97 97 98 76 67 69 64 64 58
54 41 44 65 71 71 81 92 101 84 86 88 94 95 91 99 69 61 81 98 125 179 207 176 137 110 98 86 91 106 118 120 130 138 129 117 97 104 108 95 96 145 122 93 97 101 85 71 68 66 66 63 65 67
43 39 55 50 61 48 53 43 50 57 77 77 88 83 89 84 108 138 164 169 166 149 127 112 102 102 87 107 116 121 123 129 104 88 92 92 120 159 178 157 144 123 107 107 99 91 79 82 84 75 69 70 77 77
45 41 56 66 63 44 31 40 55 62 82 99 101 97 109 160 167 173 158 142 117 105 102 92 91 94 107 127 145 174 173 144 104 86 89 81 91 204 177 144 125 112 96 93 102 102 100 89 79 83 90 89 94 101
47 30 59 60 53 41 65 68 85 92 77 96 108 120 132 153 171 166 163 161 149 119 95 82 79 67 67 70 84 129 164 141 112 88 94 129 136 134 122 119 116 101 102 95 76 72 80 87 96 108 124 135 134 130
53 48 58 57 63 84 103 104 97 102 108 109 122 117 148 178 207 224 222 163 134 109 117 141 100 96 101 116 120 124 122 111 101 105 105 86 88 97 98 99 99 96 82 73 72 76 81 89 103 117 136 135 129 123
51 55 67 70 71 85 88 96 101 105 108 102 114 145 153 183 204 191 187 144 130 149 131 102 111 110 98 94 70 63 54 41 35 46 64 61 65 71 70 69 64 58 62 69 78 87 101 115 117 120 120 120 120 128
65 74 90 88 90 78 89 88 107 88 77 99 126 140 163 179 179 137 86 89 70 69 75 69 58 49 61 86 85 70 56 48 51 48 54 52 54 52 44 50 55 61 65 73 88 102 114 121 122 113 114 117 125 130